When you browse on this site, cookies collect data to enhance your experience and personalize the content and advertising you see.
Visit our Privacy Policy to learn more. By continuing to use the site, you agree to this use of cookies and data.
  • In Austria
  • List of Countries
  • For 7 days
  • Water Temperature
  • Satellite Maps
  • Weather Map
  • News
  • Weather Widgets
  • user-avatar
    Login

    Hourly Weather Pabna

    Today, 23 April, Tuesday

    Time Temperature Precipitation Wind Pressure Humidity
    00:00 +32°C° 0 mm 2 mps 753 mmHg 43%
    01:00 +31°C° 0 mm 2 mps 753 mmHg 44%
    02:00 +31°C° 0 mm 2 mps 753 mmHg 45%
    03:00 +31°C° 0 mm 2 mps 753 mmHg 46%
    04:00 +30°C° 0 mm 1 mps 753 mmHg 47%
    05:00 +30°C° 0 mm 1 mps 753 mmHg 49%
    06:00 +29°C° 0 mm 1 mps 753 mmHg 51%
    07:00 +31°C° 0 mm 2 mps 754 mmHg 46%
    08:00 +34°C° 0 mm 2 mps 754 mmHg 41%
    09:00 +35°C° 0 mm 2 mps 755 mmHg 36%
    10:00 +36°C° 0 mm 2 mps 755 mmHg 33%
    11:00 +38°C° 0 mm 2 mps 754 mmHg 30%
    12:00 +39°C° 0 mm 2 mps 754 mmHg 27%
    13:00 +39°C° 0 mm 2 mps 753 mmHg 26%
    14:00 +40°C° 0 mm 1 mps 753 mmHg 25%
    15:00 +40°C° 0 mm 1 mps 752 mmHg 24%
    16:00 +40°C° 0 mm 1 mps 752 mmHg 24%
    17:00 +39°C° 0 mm 1 mps 751 mmHg 25%
    18:00 +39°C° 0 mm 1 mps 751 mmHg 26%
    19:00 +38°C° 0 mm 2 mps 752 mmHg 29%
    20:00 +37°C° 0 mm 2 mps 753 mmHg 32%
    21:00 +36°C° 0 mm 3 mps 753 mmHg 35%
    22:00 +35°C° 0 mm 2 mps 754 mmHg 39%
    23:00 +34°C° 0 mm 2 mps 754 mmHg 42%

    Tomorrow, 24 April, Wednesday

    Time Temperature Precipitation Wind Pressure Humidity
    00:00 +33°C° 0 mm 1 mps 754 mmHg 45%
    01:00 +32°C° 0 mm 1 mps 754 mmHg 46%
    02:00 +32°C° 0 mm 1 mps 753 mmHg 47%
    03:00 +31°C° 0 mm 1 mps 753 mmHg 49%
    04:00 +31°C° 0 mm 1 mps 753 mmHg 49%
    05:00 +31°C° 0 mm 1 mps 753 mmHg 49%
    06:00 +31°C° 0 mm 1 mps 754 mmHg 50%
    07:00 +32°C° 0 mm 1 mps 754 mmHg 45%
    08:00 +34°C° 0 mm 1 mps 755 mmHg 41%
    09:00 +35°C° 0 mm 1 mps 756 mmHg 36%
    10:00 +37°C° 0 mm 1 mps 755 mmHg 33%
    11:00 +39°C° 0 mm 2 mps 755 mmHg 30%
    12:00 +40°C° 0 mm 2 mps 755 mmHg 27%
    13:00 +40°C° 0 mm 1 mps 754 mmHg 26%
    14:00 +41°C° 0 mm 1 mps 753 mmHg 25%
    15:00 +41°C° 0 mm 1 mps 752 mmHg 23%
    16:00 +41°C° 0 mm 1 mps 751 mmHg 24%
    17:00 +41°C° 0 mm 1 mps 751 mmHg 24%
    18:00 +40°C° 0 mm 1 mps 751 mmHg 24%
    19:00 +39°C° 0 mm 2 mps 751 mmHg 27%
    20:00 +38°C° 0 mm 3 mps 752 mmHg 29%
    21:00 +37°C° 0 mm 3 mps 752 mmHg 32%
    22:00 +37°C° 0 mm 3 mps 752 mmHg 34%
    23:00 +36°C° 0 mm 3 mps 752 mmHg 35%

    Day after tomorrow, 25 April, Thursday

    Time Temperature Precipitation Wind Pressure Humidity
    00:00 +36°C° 0 mm 3 mps 752 mmHg 37%
    01:00 +35°C° 0 mm 3 mps 752 mmHg 42%
    02:00 +34°C° 0 mm 3 mps 752 mmHg 48%
    03:00 +34°C° 0 mm 3 mps 752 mmHg 53%
    04:00 +33°C° 0 mm 3 mps 752 mmHg 56%
    05:00 +32°C° 0 mm 2 mps 752 mmHg 59%
    06:00 +31°C° 0 mm 2 mps 753 mmHg 62%
    07:00 +34°C° 0 mm 2 mps 753 mmHg 54%
    08:00 +36°C° 0 mm 2 mps 754 mmHg 46%
    09:00 +37°C° 0 mm 3 mps 755 mmHg 39%
    10:00 +39°C° 0 mm 3 mps 754 mmHg 34%
    11:00 +40°C° 0 mm 3 mps 754 mmHg 29%
    12:00 +43°C° 0 mm 3 mps 754 mmHg 24%
    13:00 +42°C° 0 mm 2 mps 753 mmHg 24%
    14:00 +42°C° 0 mm 2 mps 752 mmHg 23%
    15:00 +42°C° 0 mm 1 mps 751 mmHg 22%
    16:00 +42°C° 0 mm 1 mps 750 mmHg 23%
    17:00 +41°C° 0 mm 1 mps 750 mmHg 24%
    18:00 +41°C° 0 mm 1 mps 750 mmHg 25%
    19:00 +40°C° 0 mm 1 mps 751 mmHg 26%
    20:00 +40°C° 0 mm 2 mps 751 mmHg 26%
    21:00 +39°C° 0 mm 3 mps 752 mmHg 27%
    22:00 +38°C° 0 mm 3 mps 752 mmHg 30%
    23:00 +36°C° 0 mm 4 mps 751 mmHg 34%

    26 April, Friday

    Time Temperature Precipitation Wind Pressure Humidity
    00:00 +35°C° 0 mm 4 mps 751 mmHg 37%
    01:00 +35°C° 0 mm 4 mps 751 mmHg 41%
    02:00 +34°C° 0 mm 4 mps 751 mmHg 45%
    03:00 +33°C° 0 mm 4 mps 750 mmHg 48%
    04:00 +33°C° 0 mm 3 mps 751 mmHg 51%
    05:00 +32°C° 0 mm 2 mps 751 mmHg 53%
    06:00 +31°C° 0 mm 2 mps 751 mmHg 56%
    07:00 +34°C° 0 mm 2 mps 752 mmHg 49%
    08:00 +36°C° 0 mm 2 mps 753 mmHg 42%
    09:00 +38°C° 0 mm 3 mps 753 mmHg 35%
    10:00 +39°C° 0 mm 3 mps 753 mmHg 31%
    11:00 +42°C° 0 mm 3 mps 752 mmHg 27%
    12:00 +43°C° 0 mm 3 mps 752 mmHg 22%
    13:00 +44°C° 0 mm 3 mps 751 mmHg 22%
    14:00 +43°C° 0 mm 2 mps 750 mmHg 21%
    15:00 +43°C° 0 mm 2 mps 749 mmHg 21%
    16:00 +42°C° 0 mm 2 mps 749 mmHg 22%
    17:00 +42°C° 0 mm 1 mps 749 mmHg 23%
    18:00 +41°C° 0 mm 1 mps 749 mmHg 24%
    19:00 +41°C° 0 mm 2 mps 749 mmHg 26%
    20:00 +40°C° 0 mm 2 mps 750 mmHg 27%
    21:00 +39°C° 0 mm 3 mps 750 mmHg 29%
    22:00 +38°C° 0 mm 4 mps 750 mmHg 34%
    23:00 +37°C° 0 mm 4 mps 750 mmHg 39%

    27 April, Saturday

    Time Temperature Precipitation Wind Pressure Humidity
    00:00 +35°C° 0 mm 5 mps 750 mmHg 45%
    01:00 +35°C° 0 mm 5 mps 750 mmHg 48%
    02:00 +34°C° 0 mm 5 mps 750 mmHg 52%
    03:00 +33°C° 0 mm 4 mps 750 mmHg 56%
    04:00 +33°C° 0 mm 4 mps 750 mmHg 59%
    05:00 +33°C° 0 mm 4 mps 750 mmHg 61%
    06:00 +31°C° 0 mm 3 mps 751 mmHg 64%
    07:00 +34°C° 0 mm 3 mps 751 mmHg 58%
    08:00 +36°C° 0 mm 3 mps 752 mmHg 51%
    09:00 +37°C° 0 mm 3 mps 753 mmHg 44%
    10:00 +39°C° 0 mm 3 mps 752 mmHg 38%
    11:00 +42°C° 0 mm 3 mps 752 mmHg 32%
    12:00 +44°C° 0 mm 4 mps 751 mmHg 25%
    13:00 +44°C° 0 mm 3 mps 750 mmHg 24%
    14:00 +45°C° 0 mm 3 mps 749 mmHg 22%
    15:00 +45°C° 0 mm 2 mps 748 mmHg 21%
    16:00 +45°C° 0 mm 2 mps 748 mmHg 22%
    17:00 +43°C° 0 mm 2 mps 748 mmHg 23%
    18:00 +43°C° 0 mm 2 mps 747 mmHg 24%
    19:00 +42°C° 0 mm 4 mps 748 mmHg 31%
    20:00 +40°C° 0 mm 6 mps 749 mmHg 38%
    21:00 +39°C° 0 mm 8 mps 749 mmHg 45%
    22:00 +38°C° 0 mm 7 mps 749 mmHg 51%
    23:00 +35°C° 0 mm 7 mps 750 mmHg 57%

    28 April, Sunday

    Time Temperature Precipitation Wind Pressure Humidity
    00:00 +34°C° 0 mm 7 mps 750 mmHg 64%
    01:00 +34°C° 0 mm 6 mps 750 mmHg 64%
    02:00 +33°C° 0 mm 6 mps 749 mmHg 65%
    03:00 +33°C° 0 mm 5 mps 749 mmHg 65%
    04:00 +33°C° 0 mm 5 mps 750 mmHg 66%
    05:00 +33°C° 0 mm 5 mps 750 mmHg 67%
    06:00 +32°C° 0 mm 5 mps 750 mmHg 68%
    07:00 +34°C° 0 mm 6 mps 751 mmHg 62%
    08:00 +36°C° 0 mm 6 mps 751 mmHg 55%
    09:00 +38°C° 0 mm 6 mps 752 mmHg 49%
    10:00 +41°C° 0 mm 6 mps 751 mmHg 41%
    11:00 +44°C° 0 mm 6 mps 750 mmHg 34%
    12:00 +46°C° 0 mm 6 mps 750 mmHg 26%
    13:00 +47°C° 0 mm 6 mps 749 mmHg 24%
    14:00 +47°C° 0 mm 6 mps 748 mmHg 21%
    15:00 +48°C° 0 mm 6 mps 747 mmHg 19%
    16:00 +47°C° 0 mm 5 mps 747 mmHg 21%
    17:00 +46°C° 0 mm 5 mps 747 mmHg 22%
    18:00 +45°C° 0 mm 5 mps 746 mmHg 23%
    19:00 +42°C° 0 mm 6 mps 747 mmHg 34%
    20:00 +39°C° 0 mm 8 mps 748 mmHg 44%
    21:00 +37°C° 0 mm 9 mps 749 mmHg 54%
    22:00 +35°C° 0 mm 9 mps 749 mmHg 58%
    23:00 +34°C° 0 mm 8 mps 749 mmHg 61%
    Show more